SPADEX-A

operational
NORAD ID: 62459 Int'l Des: 2024-253 Owner: ISRO Country: IN
LEOCIRCULAR

About SPADEX-A

Description loading...

Live Position

Loading 3D Globe...

Upcoming Passes

Altitude History

Altitude vs Time

uPlot chart will show altitude changes over time

Two-Line Element Set

1 62459U 24253A 26062.16466153 .00061042 00000-0 83225-3 0 9996
2 62459 54.9946 123.0275 0004510 350.5148 9.5802 15.56989795 65954
Epoch: Mar 3, 2026 • Age: 8 hours

Current Status

Altitude 402.1 km
Velocity 7.67 km/s
Sub-Earth Point -28.00°S, 172.92°E
Launch Date Dec 30, 2024
Age 1.1 years
Type other

Technical Details

Classification Payload
Mass 220.00 kg
Dry Mass 180.00 kg
Total Mass 220.00 kg
Length 1.00 m
Diameter 0.50 m
Span 2.50 m
Shape Box+ 2 pan
Manufacturer ISRO
Bus Type SPADEX
Phase Status In Orbit
Owner/State ISRO/IN

Large Constellations

Loading constellations...